Simultaneous Nadir Overpasses (SNOs) Predictions

Prediction of SNOs between GOES-14 and AQUA Satellite Orbit:

Table of predicted SNOs for the next 14.0 days since TLE Epoch: 8/10/2024
Index Date Time (GOES-14) GOES-14 Lat,Lon AQUA Lat,Lon Distance(km) Time Diff (sec)
1 08/11/2024 21:28:23 -0.06,-108.38 0.03,-108.11 31.50 80
2 08/14/2024 09:31:22 0.05,-108.42 0.13,-108.79 42.00 80
3 08/16/2024 09:11:39 0.04,-108.40 -0.75,-104.62 429.50 80
4 08/16/2024 21:31:47 -0.04,-108.33 -0.31,-109.49 131.85 80
5 08/18/2024 21:17:23 -0.02,-108.31 0.63,-105.32 340.57 80
6 08/19/2024 09:37:22 0.02,-108.37 0.38,-110.16 203.40 80
7 08/21/2024 09:17:35 0.02,-108.35 -0.48,-105.97 270.00 80
8 08/21/2024 21:37:42 -0.02,-108.27 -0.58,-110.84 291.58 80
9 08/23/2024 21:23:14 -0.02,-108.26 0.33,-106.65 183.08 80
